Weather History for Superior, WI

Change the Weather History Date:

Wednesday, February 20, 2013

  Actual Average Record
Temperature  
Mean Temperature 5 °F -  
Max Temperature 16 °F 29 °F 32 °F (2014)
Min Temperature -6 °F 10 °F 23 °F (2014)
Degree Days  
Heating Degree Days 60    
Moisture  
Dew Point -5 °F    
Average Humidity 68    
Maximum Humidity 88    
Minimum Humidity 47    
Precipitation  
Precipitation 0.00 in - - ()
Sea Level Pressure  
Sea Level Pressure 30.45 in    
Wind  
Wind Speed 5 mph (NNE)    
Max Wind Speed 12 mph    
Max Gust Speed -    
Visibility 10 miles    
Events      
Averages and records for this station are not official NWS values.
T = Trace of Precipitation, MM = Missing Value Source: NWS Daily Summary

Daily Weather History Graph

Daily Weather History Graph

Search for Another Location

Airport:

Trip Planner

Search our weather history database for the weather conditions in past years. The results will help you decide how hot, cold, wet, or windy it might be!

Date:

Astronomy

Feb. 20, 2013 Rise Set
Actual Time 7:03 AM CST 5:41 PM CST
Civil Twilight 6:32 AM CST 6:12 PM CST
Nautical Twilight 5:57 AM CST 6:47 PM CST
Astronomical Twilight 5:22 AM CST 7:22 PM CST
Moon 12:52 PM CST (2/20) 3:35 AM CST (2/20)
Length of Visible Light 11h 39m
Length of Day
10h 37m
Waxing Gibbous, 76% of the Moon is Illuminated
Feb 20
Waxing Gibbous
Feb 25
Full
Mar 4
Last Quarter
Mar 11
New
Mar 19
First Quarter

Hourly Weather History & Observations

Time (CST) Temp. Windchill Dew Point Humidity Pressure Visibility Wind Dir Wind Speed Gust Speed Precip Events Conditions
12:15 AM 1.4 °F -9.9 °F -7.2 °F 67% 30.34 in 10.0 mi North 5.8 mph - N/A   Clear
12:35 AM 0.1 °F -11.4 °F -7.8 °F 69% 30.36 in 10.0 mi NW 5.8 mph - N/A   Clear
12:55 AM 0.3 °F -12.6 °F -7.4 °F 70% 30.36 in 10.0 mi North 6.9 mph - N/A   Clear
1:15 AM -0.4 °F -16.7 °F -8.5 °F 69% 30.37 in 10.0 mi NNW 10.4 mph - N/A   Clear
1:35 AM -0.6 °F -16.0 °F -8.3 °F 70% 30.38 in 10.0 mi NNW 9.2 mph - N/A   Clear
1:55 AM -0.8 °F -18.0 °F -8.5 °F 70% 30.39 in 10.0 mi NNW 11.5 mph - N/A   Clear
2:15 AM 0.1 °F -16.0 °F -8.3 °F 68% 30.39 in 10.0 mi NNW 10.4 mph - N/A   Clear
2:35 AM 0.3 °F -12.6 °F -8.1 °F 68% 30.39 in 10.0 mi North 6.9 mph - N/A   Clear
3:15 AM -2.2 °F -16.8 °F -9.4 °F 71% 30.41 in 10.0 mi NNW 8.1 mph - N/A   Clear
3:35 AM -2.6 °F -19.4 °F -9.8 °F 71% 30.42 in 10.0 mi NNW 10.4 mph - N/A   Clear
3:55 AM -2.4 °F -20.1 °F -9.6 °F 71% 30.42 in 10.0 mi NNW 11.5 mph - N/A   Clear
4:15 AM -2.6 °F -19.4 °F -9.9 °F 71% 30.43 in 10.0 mi NNW 10.4 mph - N/A   Clear
4:35 AM -2.2 °F -16.8 °F -9.6 °F 71% 30.44 in 10.0 mi NNW 8.1 mph - N/A   Clear
4:55 AM -3.6 °F -19.7 °F -10.5 °F 72% 30.44 in 10.0 mi North 9.2 mph - N/A   Clear
5:15 AM -3.1 °F -19.1 °F -10.3 °F 71% 30.44 in 10.0 mi NNW 9.2 mph - N/A   Clear
5:35 AM -3.3 °F -15.4 °F -10.3 °F 72% 30.45 in 10.0 mi North 5.8 mph - N/A   Clear
5:55 AM -3.1 °F -13.5 °F -10.7 °F 70% 30.45 in 10.0 mi North 4.6 mph - N/A   Clear
6:15 AM -3.1 °F -17.9 °F -10.5 °F 71% 30.45 in 10.0 mi North 8.1 mph - N/A   Clear
6:35 AM -4.5 °F -16.9 °F -11.7 °F 71% 30.46 in 10.0 mi NNW 5.8 mph - N/A   Clear
6:55 AM -4.4 °F -16.7 °F -11.2 °F 72% 30.46 in 10.0 mi NNW 5.8 mph - N/A   Clear
7:15 AM -5.3 °F -16.0 °F -12.1 °F 72% 30.47 in 10.0 mi West 4.6 mph - N/A   Clear
7:35 AM -5.4 °F -14.1 °F -11.9 °F 74% 30.47 in 10.0 mi West 3.5 mph - N/A   Clear
7:55 AM -6.3 °F -15.1 °F -13.2 °F 72% 30.48 in 10.0 mi WSW 3.5 mph - N/A   Clear
8:15 AM -5.1 °F -17.6 °F -12.1 °F 72% 30.49 in 7.0 mi WSW 5.8 mph - N/A   Clear
8:35 AM -3.6 °F - -11.4 °F 69% 30.48 in 10.0 mi Calm Calm - N/A   Clear
9:15 AM 0.7 °F - -9.6 °F 62% 30.48 in 10.0 mi Calm Calm - N/A   Mostly Cloudy
9:35 AM 3.2 °F -7.8 °F -6.5 °F 64% 30.48 in 10.0 mi NE 5.8 mph - N/A   Mostly Cloudy
9:55 AM 5.0 °F -4.1 °F -4.0 °F 66% 30.48 in 10.0 mi ENE 4.6 mph - N/A   Scattered Clouds
10:15 AM 6.1 °F -2.8 °F -3.3 °F 65% 30.48 in 10.0 mi East 4.6 mph - N/A   Clear
10:35 AM 6.8 °F -2.0 °F -3.1 °F 64% 30.48 in 10.0 mi East 4.6 mph - N/A   Clear
10:55 AM 7.3 °F - -2.6 °F 64% 30.47 in 10.0 mi Calm Calm - N/A   Clear
11:15 AM 7.9 °F -0.7 °F -1.5 °F 66% 30.47 in 10.0 mi ENE 4.6 mph - N/A   Clear
11:35 AM 9.7 °F - -0.0 °F 65% 30.47 in 10.0 mi Calm Calm - N/A   Clear
11:55 AM 8.8 °F - -0.8 °F 65% 30.47 in 10.0 mi Calm Calm - N/A   Clear
12:15 PM 9.5 °F - -0.4 °F 64% 30.47 in 10.0 mi Calm Calm - N/A   Clear
12:35 PM 10.9 °F 2.9 °F -0.8 °F 59% 30.46 in 10.0 mi East 4.6 mph - N/A   Clear
12:55 PM 11.5 °F 5.3 °F -0.4 °F 59% 30.46 in 10.0 mi ENE 3.5 mph - N/A   Clear
1:15 PM 12.0 °F 4.1 °F 0.3 °F 59% 30.46 in 10.0 mi East 4.6 mph - N/A   Clear
1:35 PM 12.7 °F 5.0 °F 1.0 °F 60% 30.45 in 10.0 mi NNE 4.6 mph - N/A   Clear
1:55 PM 13.3 °F - 0.7 °F 57% 30.46 in 10.0 mi Calm Calm - N/A   Clear
2:15 PM 13.8 °F 8.0 °F 0.9 °F 56% 30.46 in 10.0 mi East 3.5 mph - N/A   Clear
2:55 PM 15.4 °F 8.1 °F 0.9 °F 53% 30.46 in 10.0 mi East 4.6 mph - N/A   Clear
3:15 PM 15.3 °F 9.6 °F -0.4 °F 50% 30.47 in 10.0 mi East 3.5 mph - N/A   Clear
3:35 PM 15.6 °F 10.0 °F -0.0 °F 50% 30.47 in 10.0 mi East 3.5 mph - N/A   Clear
3:55 PM 16.3 °F - -0.6 °F 47% 30.48 in 10.0 mi Calm Calm - N/A   Clear
4:15 PM 15.8 °F 8.6 °F -1.1 °F 47% 30.47 in 10.0 mi East 4.6 mph - N/A   Clear
4:35 PM 14.9 °F 9.2 °F -0.6 °F 50% 30.47 in 10.0 mi East 3.5 mph - N/A   Clear
4:55 PM 14.9 °F - -1.3 °F 49% 30.47 in 10.0 mi Calm Calm - N/A   Clear
5:15 PM 13.8 °F 8.0 °F -0.8 °F 52% 30.47 in 10.0 mi East 3.5 mph - N/A   Clear
5:35 PM 11.5 °F - -0.2 °F 59% 30.47 in 10.0 mi Calm Calm - N/A   Clear
5:55 PM 10.8 °F - -0.6 °F 60% 30.47 in 10.0 mi Calm Calm - N/A   Clear
6:15 PM 9.1 °F - 0.3 °F 67% 30.48 in 10.0 mi Calm Calm - N/A   Clear
6:35 PM 8.1 °F - 0.5 °F 71% 30.47 in 10.0 mi Calm Calm - N/A   Clear
6:55 PM 5.0 °F - -1.3 °F 75% 30.47 in 10.0 mi Calm Calm - N/A   Clear
7:15 PM 4.1 °F - -0.8 °F 80% 30.47 in 10.0 mi Calm Calm - N/A   Clear
7:35 PM 1.6 °F - -3.5 °F 79% 30.46 in 10.0 mi Calm Calm - N/A   Clear
7:55 PM 1.8 °F - -1.3 °F 87% 30.46 in 10.0 mi Calm Calm - N/A   Clear
8:15 PM -0.9 °F - -6.0 °F 79% 30.46 in 10.0 mi Calm Calm - N/A   Clear
8:35 PM -1.5 °F - -4.5 °F 87% 30.45 in 10.0 mi Calm Calm - N/A   Clear
9:15 PM -0.0 °F -9.9 °F -3.3 °F 86% 30.44 in 10.0 mi East 4.6 mph - N/A   Clear
9:35 PM -3.3 °F -13.7 °F -7.1 °F 84% 30.44 in 10.0 mi East 4.6 mph - N/A   Clear
9:55 PM 5.0 °F -2.1 °F -0.8 °F 77% 30.44 in 10.0 mi East 3.5 mph - N/A   Clear
10:15 PM 6.6 °F -0.3 °F 0.1 °F 75% 30.44 in 10.0 mi ESE 3.5 mph - N/A   Clear
10:35 PM 2.3 °F - -4.2 °F 74% 30.44 in 10.0 mi Calm Calm - N/A   Clear
10:55 PM 2.3 °F - -2.4 °F 81% 30.44 in 10.0 mi Calm Calm - N/A   Clear
11:15 PM -1.3 °F - -4.5 °F 86% 30.44 in 10.0 mi Calm Calm - N/A   Clear
11:35 PM -1.5 °F - -4.4 °F 88% 30.44 in 10.0 mi Calm Calm - N/A   Clear
11:55 PM -5.1 °F - -8.9 °F 84% 30.44 in 10.0 mi Calm Calm - N/A   Clear